Location: �perlecques
(50.8057°N, 2.1521°E)
Time: 02:13:03
(UTC+00:00)

Vanguard 1 Rocket - Pass Details

Date: 31 July 2021
Orbit: 650 x 4226 km, 34.3° (Epoch: 25 September)

Event Time Altitude Azimuth Distance (km) Brightness Sun altitude
Rises 07:58:13 0° 201° (SSW) 8,282 12.2 32.9°
Reaches altitude 10° 08:06:53 10° 188° (S) 6,834 12.0 34.2°
Maximum altitude 08:19:21 19° 151° (SSE) 5,062 12.0 36.1°
Drops below altitude 10° 08:28:25 10° 113° (ESE) 4,842 12.4 37.5°
Sets 08:32:52 0° 96° (E) 5,288 12.2 38.1°
